Regional Weather Roundup
Issued by NWS Kansas City/Pleasant Hill, MO

Home | Current Version | Previous Version | Text Only | Print | Product List | Glossary On
Versions: 1 2 3 4 5 6 7 8 9 10 11 12 13 14 15 16 17 18 19 20 21 22 23 24 25 26 27 28 29 30 31 32 33 34 35 36 37 38 39 40 41 42 43 44 45 46 47 48 49 50
000
ASUS43 KEAX 182010
RWREAX

WEATHER ROUNDUP FOR EASTERN KANSAS AND NORTHWEST MISSOURI
NATIONAL WEATHER SERVICE KANSAS CITY/PLEASANT HILL MO
300 PM CDT THU SEP 18 2014

KSZ040-057-103>105-MOZ028-029-037-043-182100-
...KANSAS CITY METROPOLITAN AREA...

CITY           SKY/WX    TMP DP  RH WIND       PRES   REMARKS
K.C. INTL      CLOUDY    65  60  84 E10       30.02S
K.C. DOWNTOWN  CLOUDY    67  61  81 NE12      30.00F
LEES SUMMIT    CLOUDY    66  62  87 E7        30.01F
OLATHE - IXD   CLOUDY    70  63  78 NE8       30.00F
OLATHE - OJC   CLOUDY    68  63  84 E10       29.99F
LAWRENCE       CLOUDY    69  62  78 E6        30.00F

$$

MOZ001>008-011>017-020>025-030>033-038>040-044>046-053-054-182100-
...NORTHERN AND CENTRAL MISSOURI...

CITY           SKY/WX    TMP DP  RH WIND       PRES   REMARKS
ST. JOSEPH     CLOUDY    65  59  81 E7        30.02F
MOSBY          CLOUDY    66  59  77 E7        30.01F
WHITEMAN AFB   CLOUDY    67  62  82 E7        30.00S
CLINTON        CLOUDY    70  64  83 E7        30.00F
SEDALIA        PTSUNNY   70  62  76 E9        30.01F
WARSAW         NOT AVBL
MARSHALL       CLOUDY    72  63  73 E8        30.02F
CHILLICOTHE      N/A     71  60  68 E8        30.04F
MOBERLY        MOSUNNY   73  57  56 E9        30.04
KIRKSVILLE     CLOUDY    70  58  65 E10       30.05F

$$

MOZ041-047>049-056>058-063>065-088>090-097-182100-
...EASTERN AND SOUTHERN MISSOURI...

CITY           SKY/WX    TMP DP  RH WIND       PRES   REMARKS
ST. LOUIS INTL MOSUNNY   73  55  53 E7        30.04F
SPIRIT OF STL  MOSUNNY   73  57  57 E6        30.01F
COLUMBIA       CLOUDY    72  60  66 E9        30.02F
JEFFERSON CITY MOSUNNY   74  59  59 SE8       30.00F
ROLLA          PTSUNNY   70  59  68 E9        30.01S
LEBANON        CLOUDY    66  61  82 SE6       30.02S
OSAGE BEACH    CLOUDY    70  61  73 E7        30.01S
SPRINGFIELD    CLOUDY    74  62  66 E10       29.99S
BRANSON        CLOUDY    72  64  78 E12       30.02S
JOPLIN         CLOUDY    75  65  70 E8        29.97F
WEST PLAINS    CLOUDY    66  60  81 NE10      30.02F

$$

IAZ060-094-KSZ022-034>040-054-083-096-NEZ052-066-093-182100-
...KANSAS...SOUTHEAST NEBRASKA AND IOWA...

CITY           SKY/WX    TMP DP  RH WIND       PRES   REMARKS
TOPEKA         CLOUDY    72  64  76 E7        29.99F
MANHATTAN      SUNNY     79  66  64 S6        29.96F
EMPORIA        MOSUNNY   74  66  76 NE5       29.96F
CHANUTE        PTSUNNY   74  65  73 NE6       29.95F
WICHITA        MOSUNNY   87  56  34 SE16G22   29.94F
OMAHA          MOSUNNY   75  54  47 SE12      29.99F
LINCOLN        SUNNY     78  57  48 SE10      29.98F
FALLS CITY     CLOUDY    70  60  70 E12       30.00F
LAMONI         MOSUNNY   67  57  70 SE8       30.04F
DES MOINES     MOSUNNY   73  51  46 SE14      30.04F

$$




USA.gov is the U.S. government's official web portal to all federal, state and local government web resources and services.